Regional Weather Roundup
Issued by NWS

Home | Current Version | Previous Version | Text Only | Print | Product List | Glossary On
Versions: 1 2 3 4 5 6 7 8 9 10 11 12 13 14 15 16 17 18 19 20 21 22 23 24 25 26 27 28 29 30 31 32 33 34 35 36 37 38 39 40 41 42 43 44 45 46 47 48 49 50
000
ASUS45 KBOU 050007
RWRCO

WEATHER ROUNDUP FOR COLORADO
NATIONAL WEATHER SERVICE DENVER/BOULDER CO
500 PM MST WED MAR 04 2015

NOTE: "FAIR" INDICATES FEW OR NO CLOUDS BELOW 12000 FEET WITH NO
SIGNIFICANT WEATHER AND/OR OBSTRUCTIONS TO VISIBILITY.

COZ001>005-013-030-031-050100-
...NORTHWEST COLORADO...

CITY           SKY/WX    TMP DP  RH WIND       PRES   REMARKS
CRAIG          SUNNY     24   4  42 NW9       30.16R WCI  14
HAYDEN         SUNNY     19   3  49 NW9       30.13R WCI   9
MEEKER         SUNNY     27   5  39 NW15      30.14R WCI  15
MOUNT WERNER   NOT AVBL
STEAMBOAT SPGS SUNNY     19   0  43 W16       30.10R WCI   4
WALDEN         MOSUNNY   12   3  67 N12       30.02R WCI  -2
$$

COZ006>008-011-050100-
...WEST CENTRAL VALLEYS...

CITY           SKY/WX    TMP DP  RH WIND       PRES   REMARKS
GRAND JUNCTION PTSUNNY   40   8  26 NW9       30.11R
MONTROSE       MOSUNNY   35  16  45 NW15G23   30.12R WCI  25
EAGLE          MOSUNNY   27   1  33 W13G22    30.11R WCI  16
RIFLE          PTSUNNY   34   9  35 N12G20    30.14R WCI  25
DELTA          SUNNY     39  16  39 NW6       30.13R
NUCLA          MOSUNNY   37  10  32 N12       30.13R
$$

COZ017>023-064>068-050100-
...SOUTHWEST COLORADO...

CITY           SKY/WX    TMP DP  RH WIND       PRES   REMARKS
DURANGO        SUNNY     36  11  35 NW10      29.97R
CORTEZ         SUNNY     37  18  46 NW14      30.08R
PAGOSA SPRINGS SUNNY     33  -7  18 NW9G23    29.95R WCI  25
TELLURIDE      MOSUNNY   21   1  42 CALM      30.05R
WOLF CREEK PAS   N/A      5   5 100 MISG      29.94R
$$

COZ009-010-012-014-032>034-037-058>063-050100-
...CENTRAL COLORADO...

CITY           SKY/WX    TMP DP  RH WIND       PRES   REMARKS
ASPEN          MOSUNNY   21   4  47 NW13G21   30.04R WCI   9
BUENA VISTA    MOSUNNY   22   4  44 NW12G21   29.97R WCI  11
COPPER MTN     NOT AVBL
BERTHOUD PASS  CLOUDY    -6 -13  71 NW35G45   29.76R WCI -35
COTTONWOOD PAS PTSUNNY   18  -6  35 W20G36    29.91R WCI   1
GUNNISON       MOSUNNY   25   3  39 NW9       30.05R WCI  15
KREMMLING      SUNNY     21   0  39 NW14G20   30.09R WCI   8
LEADVILLE      CLOUDY     9  -2  61 NW9G20    29.93R WCI  -4
SALIDA         MOSUNNY   29   4  34 W12       30.06R WCI  19
SUNLIGHT       PTSUNNY    9   5  85 W8          N/A  WCI  -4
WILKERSON PASS SUNNY      9  -2  61 W9G18     29.88R WCI  -5
$$

COZ069>075-050100-
...SAN LUIS VALLEY/SANGRE DE CRISTO MOUNTAINS...

CITY           SKY/WX    TMP DP  RH WIND       PRES   REMARKS
ALAMOSA        MOSUNNY   32   4  30 N21G41    29.93R WCI  20
LA VETA PASS   CLOUDY     5   1  85 MISG      29.90R
SAGUACHE       MOSUNNY   25  12  58 NW21G30   29.97R WCI  10
$$

COZ035-036-038>040-050100-
...NORTHERN COLORADO FRONT RANGE...

CITY           SKY/WX    TMP DP  RH WIND       PRES   REMARKS
DENVER INTL AP MOCLDY    15   7  70 S5        30.14R WCI   8
DMNS CITY PARK   N/A     17   6  62 E6        30.14S WCI   8
AURORA         MOCLDY    14   6  70 SE2       30.14R
FRONT RANGE AP NOT AVBL
ERIE MUNI ARPT CLEAR     18   8  65 SW5       30.16R WCI  11
BOULDER MUN AP MOCLDY    18  12  79 CALM      30.14S
CENTENNIAL     MOCLDY    15   4  61 CALM      30.11R
BROOMFIELD     LGT SNOW  16  12  86 CALM      30.13R
FORT COLLINS   PTCLDY    16   7  67 S9        30.16S WCI   4
LONGMONT       PTCLDY    23  10  57 SW7       30.18S WCI  14
$$

COZ041-046-047-076>085-087-088-050100-
...PIKES PEAK/PALMER DIVIDE AND SOUTHERN FOOTHILLS...

CITY           SKY/WX    TMP DP  RH WIND       PRES   REMARKS
COLO. SPRINGS  LGT SNOW  13  10  88 SE9       30.11R VSB 3/4 WCI   1
A. F. ACADEMY  MOCLDY    12   6  76 S7        30.07R WCI   2
ELLICOTT       NOT AVBL
FALCON         LGT SNOW  12   6  76 S6        30.07R WCI   3
FORT CARSON    SNOW      14  11  87 SE8       30.12R VSB 1/2 WCI   3
LIMON          CLEAR     13   2  61 W5        30.15R WCI   5
MONUMENT HILL  CLEAR      9   5  85 E3        30.04R
TRINIDAD       SNOW      16  12  84 E8        30.13R VSB 1/2 WCI   5
$$

COZ042>045-048>051-090-091-050100-
...NORTHEAST COLORADO...

CITY           SKY/WX    TMP DP  RH WIND       PRES   REMARKS
GREELEY ARPT   CLEAR     21   3  45 SW10      30.16R WCI  10
AKRON          PTCLDY    22   7  52 W10       30.14S WCI  11
BURLINGTON     CLEAR     25   5  42 N6        30.19R WCI  18
WRAY           CLEAR     29   4  34 NW7       30.20R WCI  22
STERLING       PTCLDY    28  10  47 W10       30.16S WCI  19
HOLYOKE        NOT AVBL
FORT MORGAN    CLEAR     24   7  47 SW10      30.17R WCI  13
$$

COZ086-089-092>099-050100-
...SOUTHEAST COLORADO...

CITY           SKY/WX    TMP DP  RH WIND       PRES   REMARKS
PUEBLO         CLOUDY    20  13  74 SE8       30.19R WCI  10
LA JUNTA       PTCLDY    22  10  60 CALM      30.23R
LAMAR          MOCLDY    23  13  65 W9        30.23R WCI  13
SPRINGFIELD      N/A     19  15  84 NE8       30.20R WCI   9
$$


USA.gov is the U.S. government's official web portal to all federal, state and local government web resources and services.